[[{"header":{"parameterUnit":"m.s-1","parameterCategory":1,"la1":30.2991,"la2":30.254,"lo1":-89.0895,"lo2":-89.0444,"dy":0.0017,"dx":0.0017,"nx":28,"ny":28,"refTime":"2025-08-03T21:00:00:Z","depth":0,"parameterNumber":2,"parameterNumberName":"U-component_of_WINDS"},"data":[0,0,0,0,0,0,0,0,0,0,0,0,0,0,0,0,0,0,0,0,0,0,0,0,0,0,0,0,0,0,0,0,0,0,0,0,0,0,0,0,0,0,0,0,0,0,0,0,0,0,0,0,0,0,0,0,0,0,-1.2929,-1.293,0,-1.2999,-1.3,-1.3001,-1.3016,-1.3016,-1.3015,-1.3015,-1.3084,-1.3086,-1.3089,0,0,0,0,0,0,0,0,0,0,0,0,0,-1.2808,-1.281,-1.2929,-1.293,-1.2931,-1.2999,-1.3,-1.3001,-1.3016,-1.3016,-1.3015,-1.3015,-1.3083,-1.3086,-1.3089,0,0,0,0,0,0,0,0,0,0,0,0,0,-1.2867,-1.2811,-1.2929,-1.2947,-1.2949,-1.2999,-1.3,-1.3001,-1.3016,-1.3016,-1.3015,-1.3014,-1.3083,-1.3086,-1.3089,-1.3125,0,0,-1.31,-1.3101,0,0,0,0,0,0,0,0,-1.2864,-1.2872,-1.2943,-1.2946,-1.2949,-1.2998,-1.2982,-1.3043,-1.3017,-1.2991,-1.3015,-1.3014,-1.3056,-1.3062,-1.3076,-1.3129,-1.3132,-1.31,-1.3102,-1.3104,-1.3105,0,0,0,0,0,0,0,-1.286,-1.2869,-1.2957,-1.2944,-1.2948,-1.2951,-1.2959,-1.2994,-1.3027,-1.2993,-1.2994,-1.3002,-1.3057,-1.3073,-1.3078,-1.3133,-1.31,-1.3103,-1.3105,-1.3107,-1.3217,-1.3218,0,0,0,0,0,0,-1.2853,-1.2865,-1.2955,-1.2959,-1.2904,-1.2954,-1.2962,-1.2983,-1.3026,-1.3032,-1.3003,-1.3003,-1.3067,-1.3074,-1.3081,-1.3125,-1.3104,-1.3107,-1.3109,-1.3216,-1.3217,-1.3218,0,0,0,0,0,0,-1.285,-1.2861,-1.2952,-1.2912,-1.2924,-1.2957,-1.298,-1.2985,-1.3,-1.3034,-1.304,-1.3013,-1.3067,-1.3076,-1.3114,-1.3128,-1.3109,-1.3112,-1.3215,-1.3217,-1.3218,-1.3214,0,0,0,0,0,0,-1.2846,-1.2859,-1.2874,-1.2913,-1.2926,-1.2985,-1.2981,-1.2987,-1.3007,-1.3007,-1.3045,-1.305,-1.3067,-1.3109,-1.3117,-1.3132,-1.3114,-1.3214,-1.3216,-1.3217,-1.3213,-1.3215,-1.3217,0,0,0,0,0,-1.2842,-1.287,-1.2875,-1.2885,-1.2945,-1.2986,-1.2993,-1.3012,-1.3008,-1.3022,-1.3043,-1.3049,-1.3125,-1.3113,-1.3123,-1.3138,-1.3213,-1.3215,-1.3217,-1.3213,-1.3215,-1.3217,0,0,0,0,0,0,-1.2832,-1.2875,-1.2881,-1.2922,-1.295,-1.2988,-1.3007,-1.3015,-1.3044,-1.3043,-1.3065,-1.3073,-1.311,-1.3128,-1.3114,-1.3175,-1.3169,-1.3173,-1.3162,-1.3165,-1.3166,-1.3161,-1.3117,0,0,0,0,0,-1.2834,-1.2864,-1.29,-1.2933,-1.2947,-1.2974,-1.2993,-1.3005,-1.3035,-1.3046,-1.307,-1.3098,-1.3128,-1.3147,-1.3177,-1.3216,-1.3224,-1.3232,-1.3234,-1.3235,-1.3238,-1.326,-1.3263,-1.3225,-1.3225,-1.3225,0,0,-1.284,-1.2867,-1.2884,-1.2932,-1.2955,-1.2984,-1.2984,-1.3016,-1.3037,-1.3051,-1.3088,-1.3107,-1.314,-1.3178,-1.3197,-1.3195,-1.3251,-1.3238,-1.3238,-1.3241,-1.3262,-1.3266,-1.3269,-1.3226,-1.3226,-1.3226,0,0,-1.2864,-1.2889,-1.2919,-1.2942,-1.2977,-1.2995,-1.3002,-1.3039,-1.3052,-1.309,-1.3101,-1.3127,-1.3178,-1.32,-1.3219,-1.3252,-1.3258,-1.3261,-1.327,-1.3291,-1.3294,-1.3296,-1.3307,-1.3311,-1.3264,-1.3264,-1.3264,0,-1.2867,-1.2912,-1.2933,-1.2964,-1.2984,-1.2998,-1.3028,-1.3049,-1.3091,-1.3105,-1.3102,-1.3166,-1.3189,-1.3233,-1.3241,-1.3255,-1.3264,-1.3256,-1.3292,-1.3295,-1.3297,-1.3308,-1.3312,-1.3264,-1.3264,-1.3264,-1.3264,0,-1.2913,-1.2944,-1.2964,-1.3005,-1.3027,-1.3057,-1.3082,-1.3102,-1.3113,-1.3131,-1.3169,-1.3197,-1.3232,-1.3244,-1.3254,-1.3289,-1.3286,-1.3287,-1.3281,-1.3301,-1.3311,-1.3316,-1.3264,-1.3264,-1.3264,-1.3264,0,0,-1.2933,-1.2985,-1.2992,-1.301,-1.305,-1.3074,-1.3104,-1.3139,-1.3156,-1.3185,-1.321,-1.3253,-1.3254,-1.3275,-1.3288,-1.3306,-1.3329,-1.3305,-1.3306,-1.3308,-1.3369,-1.3367,-1.3372,-1.3334,-1.3335,-1.3335,-1.3366,0,-1.2962,-1.3018,-1.3037,-1.3082,-1.3111,-1.3125,-1.3151,-1.3178,-1.3195,-1.3222,-1.3241,-1.3271,-1.3271,-1.3283,-1.3302,-1.3323,-1.3342,-1.3321,-1.3357,-1.3358,-1.3348,-1.3378,-1.3376,-1.3404,-1.337,-1.3371,-1.3371,0,-1.3004,-1.3033,-1.3082,-1.3117,-1.313,-1.3153,-1.3186,-1.3212,-1.3242,-1.3254,-1.3276,-1.3288,-1.332,-1.3312,-1.3356,-1.3341,-1.3357,-1.3369,-1.3371,-1.3374,-1.3365,-1.3381,-1.3413,-1.3417,-1.3378,-1.3378,-1.3377,0,-1.3012,-1.3064,-1.31,-1.3116,-1.3158,-1.3174,-1.3192,-1.3222,-1.3241,-1.327,-1.3283,-1.3315,-1.3332,-1.3356,-1.3376,-1.3369,-1.3417,-1.3412,-1.3427,-1.3427,-1.3436,-1.3435,-1.347,-1.3448,-1.3448,-1.3447,-1.3447,0,-1.3043,-1.3072,-1.3105,-1.3126,-1.3159,-1.3181,-1.3212,-1.3231,-1.3257,-1.3282,-1.3296,-1.3319,-1.3344,-1.337,-1.3386,-1.3419,-1.3427,-1.3436,-1.344,-1.3435,-1.3434,-1.3445,-1.3444,-1.3449,-1.3448,-1.3448,-1.3448,0,-1.3058,-1.3081,-1.3121,-1.3158,-1.3168,-1.319,-1.3221,-1.3243,-1.3261,-1.3293,-1.3301,-1.333,-1.3361,-1.3383,-1.3424,-1.3434,-1.347,-1.3474,-1.346,-1.3462,-1.3475,-1.3474,-1.3519,-1.3525,-1.3499,-1.3499,-1.3499,0,-1.3076,-1.3098,-1.3137,-1.3156,-1.3174,-1.3203,-1.3223,-1.3245,-1.3265,-1.3301,-1.3318,-1.335,-1.3378,-1.3427,-1.3451,-1.3482,-1.3486,-1.35,-1.3491,-1.3485,-1.3486,-1.3484,-1.3486,-1.3501,-1.3501,-1.3501,-1.3502,0,-1.3104,-1.3114,-1.3143,-1.3176,-1.3199,-1.3226,-1.3253,-1.3266,-1.3293,-1.3315,-1.3348,-1.3369,-1.341,-1.3442,-1.3475,-1.3493,-1.3502,-1.3504,-1.3509,-1.3504,-1.3495,-1.3499,-1.3463,-1.3503,-1.3503,-1.3503,-1.3503,-1.3503,-1.3121,-1.3141,-1.3172,-1.3203,-1.3226,-1.325,-1.3272,-1.3293,-1.3321,-1.3357,-1.3368,-1.3401,-1.343,-1.3476,-1.3494,-1.3521,-1.352,-1.3527,-1.3529,-1.353,-1.353,-1.3491,-1.3527,-1.3527,-1.3527,-1.3527,-1.3527,0,-1.3149,-1.317,-1.3198,-1.3235,-1.326,-1.3266,-1.3296,-1.3316,-1.3345,-1.3372,-1.3398,-1.3436,-1.3467,-1.3493,-1.3525,-1.3541,-1.3545,-1.3548,-1.3547,-1.3551,-1.3529,-1.3521,-1.3544,-1.3544,-1.3544,-1.3544,-1.3544,-1.3544,-1.3167,-1.3202,-1.3216,-1.3261,-1.3282,-1.3315,-1.3331,-1.3354,-1.3375,-1.3416,-1.3442,-1.3459,-1.3486,-1.352,-1.3548,-1.3555,-1.3566,-1.3568,-1.3575,-1.3555,-1.3553,-1.3551,-1.3543,-1.357,-1.357,-1.3595,-1.3595,-1.3595]},{"header":{"parameterUnit":"m.s-1","parameterCategory":1,"la1":30.2991,"la2":30.254,"lo1":-89.0895,"lo2":-89.0444,"dy":0.0017,"dx":0.0017,"nx":28,"ny":28,"refTime":"2025-08-03T21:00:00:Z","depth":0,"parameterNumber":3,"parameterNumberName":"V-component_of_WINDS"},"data":[0,0,0,0,0,0,0,0,0,0,0,0,0,0,0,0,0,0,0,0,0,0,0,0,0,0,0,0,0,0,0,0,0,0,0,0,0,0,0,0,0,0,0,0,0,0,0,0,0,0,0,0,0,0,0,0,0,0,0.0382,0.0382,0,0.0428,0.0428,0.0429,0.0386,0.0385,0.0383,0.0381,0.0429,0.0431,0.0434,0,0,0,0,0,0,0,0,0,0,0,0,0,0.0258,0.026,0.0382,0.0382,0.0383,0.0428,0.0428,0.0429,0.0387,0.0385,0.0382,0.038,0.0428,0.0431,0.0435,0,0,0,0,0,0,0,0,0,0,0,0,0,0.0308,0.0261,0.0381,0.0367,0.0366,0.0428,0.0428,0.0429,0.0387,0.0384,0.0382,0.0379,0.0427,0.0431,0.0435,0.0513,0,0,0.0448,0.045,0,0,0,0,0,0,0,0,0.0306,0.0313,0.0369,0.0368,0.0367,0.0399,0.0402,0.0457,0.0388,0.0379,0.0381,0.0378,0.0421,0.0425,0.044,0.0515,0.0517,0.0449,0.0451,0.0453,0.0454,0,0,0,0,0,0,0,0.0302,0.0311,0.04,0.0369,0.0369,0.0359,0.0363,0.0412,0.0414,0.038,0.0377,0.0383,0.042,0.0436,0.0441,0.0518,0.0448,0.0452,0.0455,0.0457,0.0662,0.0665,0,0,0,0,0,0,0.03,0.0308,0.0398,0.0401,0.0329,0.0363,0.0368,0.0391,0.0413,0.0414,0.0385,0.0381,0.043,0.0436,0.0442,0.0537,0.0453,0.0457,0.0459,0.0659,0.0663,0.0666,0,0,0,0,0,0,0.0298,0.0308,0.0396,0.0354,0.0364,0.0368,0.0394,0.0393,0.0409,0.0417,0.0417,0.0401,0.0428,0.0436,0.0496,0.0538,0.0459,0.0463,0.0656,0.066,0.0664,0.0725,0,0,0,0,0,0,0.0294,0.0308,0.0337,0.0355,0.0367,0.045,0.0397,0.0396,0.0417,0.0411,0.0432,0.0433,0.0426,0.049,0.0501,0.0542,0.0466,0.0652,0.0658,0.0663,0.072,0.0731,0.0741,0,0,0,0,0,0.029,0.0352,0.0339,0.035,0.0404,0.0452,0.0459,0.045,0.042,0.045,0.0455,0.0432,0.0531,0.0497,0.0508,0.0551,0.065,0.0656,0.0662,0.0715,0.0729,0.0741,0,0,0,0,0,0,0.0339,0.0354,0.034,0.0409,0.043,0.0445,0.0482,0.0465,0.0495,0.0489,0.0476,0.0481,0.0546,0.0554,0.0515,0.0629,0.0585,0.0595,0.0621,0.0635,0.0645,0.0643,0.047,0,0,0,0,0,0.0358,0.0396,0.0407,0.0468,0.0479,0.0479,0.05,0.0491,0.0512,0.0521,0.053,0.0551,0.0587,0.0611,0.0644,0.072,0.0725,0.0756,0.0767,0.0775,0.0784,0.0827,0.0841,0.0687,0.0687,0.0687,0,0,0.0397,0.041,0.0435,0.0478,0.0493,0.0533,0.0487,0.0531,0.0561,0.0527,0.0585,0.0593,0.0616,0.0685,0.0716,0.0694,0.0827,0.0784,0.0791,0.0794,0.0835,0.0849,0.0862,0.0692,0.0691,0.069,0,0,0.0491,0.0504,0.0556,0.0573,0.0596,0.0596,0.0609,0.0627,0.0631,0.0689,0.0665,0.0701,0.0762,0.078,0.0797,0.0899,0.0879,0.091,0.0966,0.1008,0.102,0.1031,0.1069,0.1083,0.0918,0.0918,0.0918,0,0.0537,0.0597,0.0586,0.0633,0.0653,0.0624,0.0678,0.0694,0.0728,0.0742,0.0717,0.0796,0.0809,0.0883,0.0908,0.0922,0.0937,0.0908,0.1019,0.103,0.104,0.1076,0.1091,0.0922,0.0921,0.0921,0.0921,0,0.0654,0.0695,0.0735,0.0769,0.0793,0.0843,0.0841,0.0867,0.0856,0.0859,0.092,0.0935,0.0971,0.0988,0.0978,0.1061,0.1047,0.1021,0.0977,0.1059,0.1093,0.1106,0.0927,0.0926,0.0925,0.0924,0,0,0.0779,0.0807,0.0822,0.0838,0.0862,0.0894,0.0943,0.098,0.1003,0.1027,0.1069,0.1122,0.1099,0.1119,0.111,0.1147,0.1229,0.1117,0.1117,0.1139,0.1324,0.1345,0.1361,0.1216,0.1218,0.122,0.1323,0,0.0875,0.0961,0.0953,0.1035,0.1074,0.1048,0.1091,0.1111,0.1116,0.115,0.1154,0.1193,0.1158,0.117,0.1205,0.1212,0.1266,0.1204,0.1256,0.1258,0.1253,0.1378,0.14,0.1496,0.1336,0.1338,0.1339,0,0.0998,0.1027,0.1113,0.1133,0.1149,0.1188,0.1222,0.1255,0.1277,0.1278,0.13,0.1286,0.1337,0.1291,0.1361,0.1319,0.134,0.1346,0.135,0.1356,0.1305,0.139,0.1526,0.1542,0.136,0.1358,0.1357,0,0.1083,0.1144,0.1204,0.1218,0.1242,0.127,0.1282,0.1301,0.1324,0.1354,0.1369,0.1403,0.1423,0.145,0.1446,0.1413,0.1519,0.1472,0.1522,0.1522,0.1547,0.1546,0.1691,0.1557,0.1557,0.1557,0.1556,0,0.1192,0.1246,0.1243,0.128,0.1341,0.1331,0.1391,0.1399,0.1417,0.1456,0.1435,0.1472,0.1463,0.15,0.1497,0.1557,0.1566,0.1569,0.1568,0.1572,0.1572,0.1586,0.158,0.156,0.156,0.1559,0.1558,0,0.1298,0.1298,0.1362,0.138,0.1386,0.143,0.1445,0.1481,0.1483,0.1533,0.1544,0.1548,0.1591,0.1589,0.1637,0.1635,0.171,0.17,0.1702,0.1701,0.1752,0.1748,0.1913,0.1935,0.1785,0.1787,0.1788,0,0.1369,0.141,0.1433,0.1457,0.1471,0.1511,0.1534,0.1527,0.1552,0.1582,0.1614,0.1655,0.1687,0.1756,0.1764,0.1801,0.1793,0.1848,0.1799,0.1802,0.1796,0.1795,0.18,0.1859,0.186,0.1862,0.1863,0,0.1494,0.1492,0.1527,0.1563,0.1592,0.1619,0.1645,0.1666,0.1661,0.1691,0.1735,0.176,0.1809,0.1851,0.1886,0.1898,0.1881,0.1878,0.1892,0.1898,0.1899,0.1901,0.1731,0.1875,0.1874,0.1873,0.1872,0.1872,0.1586,0.1622,0.1645,0.1685,0.1703,0.1727,0.1762,0.177,0.1806,0.1846,0.1839,0.1888,0.1911,0.1957,0.1973,0.2012,0.1992,0.2012,0.2017,0.2023,0.2029,0.1891,0.2018,0.2018,0.2017,0.2017,0.2017,0,0.1712,0.1725,0.1762,0.1799,0.1831,0.1811,0.1838,0.1866,0.191,0.1933,0.1965,0.2016,0.2057,0.2068,0.2107,0.2136,0.2129,0.2147,0.2145,0.2149,0.2044,0.2029,0.2152,0.2152,0.2152,0.2152,0.2152,0.2152,0.1781,0.1843,0.1844,0.1914,0.1927,0.1975,0.1993,0.2016,0.2034,0.2092,0.2126,0.2133,0.2151,0.2192,0.2228,0.2231,0.2247,0.2268,0.2268,0.2169,0.2156,0.2143,0.2129,0.2271,0.2272,0.237,0.2371,0.2372]}]]